Location: Unspecified
(0.0000°N, 0.0000°E)
Time: 01:11:09
(UTC+00:00)

CUTE 1.7 + AOD 2 - Pass Details

Date: 15 December 2017
Orbit: 595 x 612 km, 97.5° (Epoch: 19 July)

Event Time Altitude Azimuth Distance (km) Brightness Sun altitude
Rises 19:26:21 0° 196° (SSW) 2,840 ? -20.8°
Reaches altitude 10° 19:29:06 10° 215° (SW) 1,938 ? -21.4°
Maximum altitude 19:31:57 18° 258° (WSW) 1,491 ? -22.1°
Drops below altitude 10° 19:34:49 10° 302° (WNW) 1,939 ? -22.7°
Sets 19:37:34 0° 321° (NW) 2,841 ? -23.3°
